Location: Selby
(38.0566°N, 122.2439°W)
Time: 07:11:27
(UTC+00:00)

Cosmos 304 Rocket - Pass Details

Date: 22 May 2024
Orbit: 674 x 681 km, 74.0° (Epoch: 13 June)

Event Time Altitude Azimuth Distance (km) Brightness Sun altitude
Exits shadow 12:04:21 - 195° (SSW) 2,630 6.3 -9.0°
Reaches altitude 10° 12:05:41 10° 194° (SSW) 2,103 5.8 -8.8°
Maximum altitude 12:10:25 84° 109° (ESE) 684 3.8 -8.0°
Drops below altitude 10° 12:15:11 10° 20° (NNE) 2,115 7.2 -7.2°
Sets 12:17:29 0° 19° (NNE) 3,033 8.0 -6.8°
